Date String (YYYY-MM-DD hh:mm:ss) UTC,Instrument flags,Ambient pressure (hPa),Sample flow (lpm),Bypass flow (lpm),Sample temperature (°C),Ambient temperature (°C),ASC tube jacket temperature (°C),LED temperature (°C),Box temperature (°C),Sample RH (%),Span deviation,Mass concentration (μg/m³),Mass concentration (μg/m³),Mass concentration (μg/m³)
DateTimeUTC,F1_M11,P_M11,Q1_M11,Q2_M11,T1_M11,T2_M11,T3_M11,T4_M11,T5_M11,U1_M11,ZSPAN_M11,X0_M11,X2_M11,X1_M11
2023-05-13 22:00:00,,0837.0,5.01,0.00,30.0,28.4,00.0,38.4,31.5,21.7,0000.0,0003.81,0001.33,0001.14
2023-05-13 22:01:00,,0837.0,5.00,0.00,30.0,28.4,00.0,38.4,31.5,21.6,0000.0,0003.93,0001.31,0001.10
2023-05-13 22:02:00,,0837.0,4.99,0.00,30.0,28.4,00.0,38.4,31.5,21.7,0000.0,0003.98,0001.26,0001.05
2023-05-13 22:03:00,,0837.0,5.00,0.00,30.0,28.4,00.0,38.4,31.5,21.8,0000.0,0004.00,0001.21,0001.01
2023-05-13 22:04:00,,0837.0,5.01,0.00,30.0,28.4,00.0,38.4,31.5,22.0,0000.0,0004.20,0001.18,0000.97
2023-05-13 22:05:00,,0837.0,4.99,0.00,30.0,28.4,00.0,38.4,31.5,22.2,0000.0,0004.15,0001.12,0000.93
2023-05-13 22:06:00,,0837.0,5.00,0.00,30.0,28.4,00.0,38.4,31.5,22.2,0000.0,0004.14,0001.09,0000.90
2023-05-13 22:07:00,,0837.1,5.00,0.00,30.0,28.4,00.0,38.4,31.5,22.0,0000.0,0004.14,0001.07,0000.87
2023-05-13 22:08:00,,0837.1,5.02,0.00,30.0,28.3,00.0,38.4,31.5,21.8,0000.0,0004.20,0001.07,0000.85
2023-05-13 22:09:00,,0837.1,4.99,0.00,30.0,28.3,00.0,38.4,31.5,21.8,0000.0,0004.22,0001.06,0000.84
2023-05-13 22:10:00,,0837.1,4.99,0.00,30.0,28.4,00.0,38.4,31.5,22.0,0000.0,0002.70,0001.01,0000.83
2023-05-13 22:11:00,,0837.1,5.00,0.00,30.0,28.4,00.0,38.4,31.5,22.2,0000.0,0001.74,0001.01,0000.84
2023-05-13 22:12:00,,0837.1,5.01,0.00,30.0,28.4,00.0,38.4,31.5,22.3,0000.0,0001.99,0001.00,0000.84
2023-05-13 22:13:00,,0837.1,5.00,0.00,30.0,28.4,00.0,38.4,31.5,22.2,0000.0,0001.87,0000.99,0000.85
2023-05-13 22:14:00,,0837.1,4.99,0.00,30.0,28.4,00.0,38.4,31.5,22.2,0000.0,0001.84,0000.99,0000.86
2023-05-13 22:15:00,,0837.1,5.00,0.00,30.0,28.4,00.0,38.4,31.5,22.2,0000.0,0001.72,0000.99,0000.86
2023-05-13 22:16:00,,0837.1,5.01,0.00,30.0,28.5,00.0,38.4,31.5,22.0,0000.0,0001.67,0001.02,0000.88
2023-05-13 22:17:00,,0837.1,5.00,0.00,30.0,28.5,00.0,38.4,31.5,21.9,0000.0,0001.79,0001.05,0000.89
2023-05-13 22:18:00,,0837.1,4.99,0.00,30.0,28.5,00.0,38.4,31.5,21.9,0000.0,0001.84,0001.07,0000.90
2023-05-13 22:19:00,,0837.1,4.99,0.00,30.0,28.5,00.0,38.4,31.5,22.2,0000.0,0001.80,0001.06,0000.90
2023-05-13 22:20:00,,0837.1,5.01,0.00,30.0,28.5,00.0,38.4,31.5,22.3,0000.0,0001.80,0001.06,0000.91
2023-05-13 22:21:00,,0837.1,4.99,0.00,30.0,28.5,00.0,38.4,31.5,22.5,0000.0,0001.84,0001.08,0000.92
2023-05-13 22:22:00,,0837.0,4.99,0.00,30.0,28.5,00.0,38.4,31.5,22.3,0000.0,0001.87,0001.09,0000.92
2023-05-13 22:23:00,,0837.1,4.99,0.00,30.0,28.5,00.0,38.4,31.5,22.1,0000.0,0001.69,0001.13,0000.93
2023-05-13 22:24:00,,0837.1,5.01,0.00,30.0,28.5,00.0,38.4,31.5,22.2,0000.0,0001.59,0001.14,0000.93
2023-05-13 22:25:00,,0837.1,5.00,0.00,30.0,28.5,00.0,38.4,31.5,22.1,0000.0,0001.91,0001.13,0000.93
2023-05-13 22:26:00,,0837.1,4.99,0.00,30.0,28.5,00.0,38.4,31.5,22.1,0000.0,0002.03,0001.17,0000.93
2023-05-13 22:27:00,,0837.1,5.00,0.00,30.0,28.5,00.0,38.4,31.5,22.1,0000.0,0002.09,0001.17,0000.94
2023-05-13 22:28:00,,0837.1,5.01,0.00,30.0,28.5,00.0,38.4,31.5,21.9,0000.0,0001.98,0001.18,0000.96
2023-05-13 22:29:00,,0837.1,5.00,0.00,30.0,28.5,00.0,38.4,31.5,21.9,0000.0,0001.94,0001.18,0000.97
2023-05-13 22:30:00,,0837.0,5.00,0.00,30.0,28.5,00.0,38.4,31.5,22.1,0000.0,0002.01,0001.22,0000.99
2023-05-13 22:31:00,,0837.0,5.00,0.00,30.0,28.5,00.0,38.4,31.5,22.2,0000.0,0002.03,0001.24,0001.01
2023-05-13 22:32:00,,0837.0,5.01,0.00,30.0,28.5,00.0,38.4,31.5,22.1,0000.0,0002.02,0001.25,0001.02
2023-05-13 22:33:00,,0837.0,5.00,0.00,30.0,28.5,00.0,38.4,31.5,22.2,0000.0,0002.00,0001.25,0001.03
2023-05-13 22:34:00,,0837.1,4.99,0.00,30.0,28.5,00.0,38.4,31.5,22.3,0000.0,0002.23,0001.24,0001.05
2023-05-13 22:35:00,,0837.0,4.99,0.00,30.0,28.6,00.0,38.4,31.5,22.4,0000.0,0002.29,0001.27,0001.07
2023-05-13 22:36:00,,0837.0,5.00,0.00,30.0,28.6,00.0,38.4,31.5,22.4,0000.0,0001.94,0001.29,0001.09
2023-05-13 22:37:00,,0837.0,4.99,0.00,30.0,28.6,00.0,38.4,31.5,22.1,0000.0,0001.84,0001.29,0001.12
2023-05-13 22:38:00,,0837.1,5.00,0.00,30.0,28.6,00.0,38.4,31.6,22.0,0000.0,0001.77,0001.32,0001.14
2023-05-13 22:39:00,,0837.1,4.99,0.00,30.0,28.5,00.0,38.4,31.5,22.0,0000.0,0001.79,0001.34,0001.16
2023-05-13 22:40:00,,0837.2,5.00,0.00,30.0,28.5,00.0,38.4,31.5,22.1,0000.0,0001.79,0001.36,0001.18
2023-05-13 22:41:00,,0837.2,5.02,0.00,30.0,28.5,00.0,38.4,31.5,22.4,0000.0,0002.01,0001.36,0001.20
2023-05-13 22:42:00,,0837.2,5.00,0.00,30.0,28.5,00.0,38.4,31.6,22.2,0000.0,0002.05,0001.37,0001.21
2023-05-13 22:43:00,,0837.2,4.99,0.00,30.0,28.5,00.0,38.4,31.6,22.4,0000.0,0002.68,0001.40,0001.22
2023-05-13 22:44:00,,0837.2,5.00,0.00,30.0,28.5,00.0,38.4,31.6,22.3,0000.0,0003.79,0001.43,0001.24
2023-05-13 22:45:00,,0837.2,5.00,0.00,30.0,28.5,00.0,38.4,31.5,22.3,0000.0,0003.57,0001.46,0001.26
2023-05-13 22:46:00,,0837.2,5.00,0.00,30.0,28.5,00.0,38.4,31.5,22.3,0000.0,0003.55,0001.47,0001.28
2023-05-13 22:47:00,,0837.2,5.01,0.00,30.1,28.5,00.0,38.4,31.5,22.4,0000.0,0003.62,0001.50,0001.30
2023-05-13 22:48:00,,0837.2,5.00,0.00,30.1,28.5,00.0,38.4,31.6,22.7,0000.0,0003.74,0001.53,0001.31
2023-05-13 22:49:00,,0837.2,5.00,0.00,30.1,28.6,00.0,38.4,31.6,22.6,0000.0,0003.77,0001.53,0001.31
2023-05-13 22:50:00,,0837.2,5.01,0.00,30.1,28.6,00.0,38.4,31.6,22.8,0000.0,0003.99,0001.58,0001.31
2023-05-13 22:51:00,,0837.2,5.01,0.00,30.1,28.6,00.0,38.4,31.6,22.4,0000.0,0004.23,0001.61,0001.32
2023-05-13 22:52:00,,0837.2,4.99,0.00,30.1,28.6,00.0,38.4,31.6,22.4,0000.0,0003.98,0001.60,0001.33
2023-05-13 22:53:00,,0837.2,5.00,0.00,30.1,28.6,00.0,38.4,31.6,22.5,0000.0,0003.86,0001.60,0001.35
2023-05-13 22:54:00,,0837.2,5.00,0.00,30.1,28.6,00.0,38.5,31.6,22.4,0000.0,0003.43,0001.60,0001.36
2023-05-13 22:55:00,,0837.2,5.00,0.00,30.1,28.6,00.0,38.5,31.6,22.7,0000.0,0002.20,0001.62,0001.37
2023-05-13 22:56:00,,0837.2,5.00,0.00,30.1,28.6,00.0,38.5,31.6,22.8,0000.0,0002.12,0001.59,0001.38
2023-05-13 22:57:00,,0837.2,5.00,0.00,30.1,28.6,00.0,38.5,31.6,22.8,0000.0,0002.16,0001.63,0001.38
2023-05-13 22:58:00,,0837.2,4.99,0.00,30.1,28.6,00.0,38.5,31.6,22.8,0000.0,0002.11,0001.62,0001.39
2023-05-13 22:59:00,,0837.2,5.00,0.00,30.1,28.6,00.0,38.5,31.6,22.5,0000.0,0002.17,0001.60,0001.40
